Regional Weather Roundup
Issued by NWS

Home | Current Version | Previous Version | Text Only | Print | Product List | Glossary Off
Versions: 1 2 3 4 5 6 7 8 9 10 11 12 13 14 15 16 17 18 19 20 21 22 23 24 25 26 27 28 29 30 31 32 33 34 35 36 37 38 39 40 41 42 43 44 45 46 47 48 49 50

000
ASUS43 KLSX 271259
RWRMO

WEATHER SUMMARY FOR MISSOURI
NATIONAL WEATHER SERVICE SPRINGFIELD MO
800 AM CDT SAT MAY 27 2017

NOTE: "FAIR" INDICATES FEW OR NO CLOUDS BELOW 12,000 FEET WITH NO
       SIGNIFICANT WEATHER AND/OR OBSTRUCTIONS TO VISIBILITY.
       CURRENT SKY AND/OR WEATHER CONDITIONS ARE NOT AVAILABLE FOR
       CHILLICOTHE AND FARMINGTON.

MOZ001>031-035>038-043-044-053-054-271400-
...NORTHERN AND WESTERN MISSOURI...

CITY           SKY/WX    TMP DP  RH WIND       PRES   REMARKS
KANSAS CTY INT CLOUDY    69  65  86 W8        29.91R
KANSAS C DTWN  PTSUNNY   72  66  81 NW7       29.89R
LEE`S SUMMIT   MOSUNNY   71  68  90 NW6       29.88R
ST JOSEPH      CLOUDY    68  66  93 W6        29.92R
CHILLICOTHE      N/A     68  64  87 VRB3      29.86F
KIRKSVILLE     CLOUDY    65  61  87 E5        29.89S

$$
MOZ066>068-077>081-088>096-101>105-271400-
...SOUTHWEST MISSOURI...

CITY           SKY/WX    TMP DP  RH WIND       PRES   REMARKS
SPRINGFIELD    SUNNY     72  69  90 SE9       29.84R
JOPLIN         MOSUNNY   78  74  87 S12       29.81R
BRANSON        MOSUNNY   70  66  88 SE7       29.88R

$$
MOZ032>034-039>042-045>050-055>058-069>072-271400-
...CENTRAL MISSOURI...

CITY           SKY/WX    TMP DP  RH WIND       PRES   REMARKS
COLUMBIA       SUNNY     71  68  90 E6        29.87F
JEFFERSON CITY SUNNY     73  67  81 SE6       29.86S
ROLLA          CLOUDY    68  68 100 E6        29.87S FOG
SEDALIA        SUNNY     71  70  96 E10       29.85S
WARRENSBURG    SUNNY     70  66  88 E7        29.82F
OSAGE BEACH    CLOUDY    69  68  96 E6        29.87S

$$
MOZ051-052-059>065-271400-
...EAST CENTRAL MISSOURI...

CITY           SKY/WX    TMP DP  RH WIND       PRES   REMARKS
ST LOUIS INTL  MOSUNNY   73  65  75 N6        29.87F
SPIRIT OF STL  SUNNY     72  68  87 NE5       29.86F
ST CHARLES     SUNNY     70  65  84 NE7       29.87S

$$
MOZ072>076-082>087-097>100-106>115-271400-
...SOUTH CENTRAL AND SOUTHEAST MISSOURI...

CITY           SKY/WX    TMP DP  RH WIND       PRES   REMARKS
CAPE GIRARDEAU CLOUDY    73  70  90 E6        29.85S FOG
FARMINGTON     CLOUDY    69  67  93 NE3       29.90R
POPLAR BLUFF   MOSUNNY   70  68  93 SW6       29.87R
WEST PLAINS    PTSUNNY   69  65  86 SW5       29.89R

$$




USA.gov is the U.S. government's official web portal to all federal, state and local government web resources and services.